Hourly Weather Roundup
Issued by NWS Central Illinois

Home | Current Version | Previous Version | Text Only | Print | Product List | Glossary On
Versions: 1 2 3 4 5 6 7 8 9 10 11 12 13 14 15 16 17 18 19 20 21 22 23 24 25 26 27 28 29 30 31 32 33 34 35 36 37 38 39 40 41 42 43 44 45 46 47 48 49 50
000
NZUS43 KILX 210610
HWRILX

AREA WEATHER ROUNDUP
NATIONAL WEATHER SERVICE, LINCOLN IL
100 AM CDT THU AUG 21 2014


CITY           SKY/WX    TMP DP  RH WIND       PRES   REMARKS
BLOOMINGTON    FAIR      71  67  87 S7        29.98S
CHAMPAIGN      FAIR      72  68  87 S8        29.99S
6HR MIN TEMP:  71; 6HR MAX TEMP:  77;

DECATUR        FAIR      73  70  90 S10       29.98R
6HR MIN TEMP:  72; 6HR MAX TEMP:  79;

FLORA          TSTM      71  66  85 SW15G31   30.02F
GALESBURG      FAIR      73  72  97 SE5       29.94R
JACKSONVILLE   FAIR      75  70  85 S8        29.96R
6HR MIN TEMP:  75; 6HR MAX TEMP:  81;

LACON          FAIR      73  69  88 SE3       29.94S
6HR MIN TEMP:  70; 6HR MAX TEMP:  75;

LAWRENCEVILLE  MOCLDY    74  71  91 SW8       30.03R
6HR MIN TEMP:  71; 6HR MAX TEMP:  79;

LITCHFIELD     FAIR      71  67  88 SE7       29.98S
$$


CITY           SKY/WX    TMP DP  RH WIND       PRES   REMARKS
LINCOLN        FAIR      73  70  91 S5        29.93R
6HR MIN TEMP:  72; 6HR MAX TEMP:  81;

MACOMB         FAIR      72  71  98 S3        29.96R
MATTOON        FAIR      74  69  85 SW8G16    29.98F
6HR MIN TEMP:  69; 6HR MAX TEMP:  77;

MT CARMEL AP   MOCLDY    77  72  83 W17G25    30.04R THUNDER
OLNEY-NOBLE AP TSTM      72  66  83 S12G18    30.00F
PARIS          FAIR      73  72  96 SW8       30.00F
6HR MIN TEMP:  69; 6HR MAX TEMP:  75;

PEORIA         FAIR      74  69  85 S5        29.95S
6HR MIN TEMP:  74; 6HR MAX TEMP:  80;

PONTIAC        FAIR      72  70  94 CALM      29.97S
RANTOUL        FAIR      72  68  87 SE5       29.99S
6HR MIN TEMP:  72; 6HR MAX TEMP:  77;

ROBINSON       FAIR      75  71  88 SW14G20   30.02R
6HR MIN TEMP:  70; 6HR MAX TEMP:  78;

SPRINGFIELD    FAIR      75  70  84 S8        29.96R
6HR MIN TEMP:  74; 6HR MAX TEMP:  80;

TAYLORVILLE    MOCLDY    70  68  94 S7        29.97S
$$

...REGIONAL REPORTS...


CITY           SKY/WX    TMP DP  RH WIND       PRES   REMARKS
CHICAGO O`HARE CLOUDY    74  65  73 SW7       29.95S
KANKAKEE       FAIR      69  68  96 SE3       29.99S
MOLINE         FAIR      70  68  93 E7        29.93R
MOUNT VERNON   MOCLDY    72  66  83 NE7       30.03F THUNDER
PITTSFIELD     FAIR      74  68  83 S3        29.96S
QUINCY         FAIR      75  68  78 S9        29.94R
ROCKFORD       MOCLDY    71  67  87 S5        29.96S
$$


CITY           SKY/WX    TMP DP  RH WIND       PRES   REMARKS
BURLINGTON     FAIR      76  74  93 S9        29.92R
CEDAR RAPIDS   FAIR      69  69 100 E9        29.91S
DES MOINES     FAIR      77  73  87 SE5       29.84F
KIRKSVILLE     FAIR      77  71  82 S8        29.93R
OTTUMWA        FAIR      76  73  91 S6        29.88F
ST LOUIS       FAIR      76  72  87 E6        29.98R
$$


CITY           SKY/WX    TMP DP  RH WIND       PRES   REMARKS
TERRE HAUTE    FAIR      68  66  93 CALM      30.01R
EVANSVILLE     FAIR      77  68  73 S6        30.02F
INDIANAPOLIS   CLOUDY    72  68  87 CALM      30.02S
LAFAYETTE      MOCLDY    70  68  93 CALM      30.01S
MADISON        FAIR      69  66  90 E6        29.94S
MILWAUKEE      FAIR      68  63  84 E6        29.97R
$$




USA.gov is the U.S. government's official web portal to all federal, state and local government web resources and services.